Regional Weather Roundup
Issued by NWS Green Bay, WI

Home | Current Version | Previous Version | Graphics & Text | Print | Product List | Glossary Off
Versions: 1 2 3 4 5 6 7 8 9 10 11 12 13 14 15 16 17 18 19 20 21 22 23 24 25 26 27 28 29 30 31 32 33 34 35 36 37 38 39 40 41 42 43 44 45 46 47 48 49 50

000
ASUS43 KGRB 220311
RWRGRB

NORTH-CENTRAL AND NORTHEAST WISCONSIN REGIONAL WEATHER ROUNDUP
NATIONAL WEATHER SERVICE GREEN BAY WI
1000 PM CDT THU MAY 21 2015

WIZ005-009-010>012-018-019-220400-
NORTH CENTRAL WISCONSIN

CITY           SKY/WX    TMP DP  RH WIND       PRES   REMARKS
IRONWOOD       CLEAR     45  36  70 CALM      30.03R
MANITOWISH WTR CLEAR     43  34  70 CALM      30.04R
ARBOR VITAE    CLEAR     45  32  60 CALM      30.04R
EAGLE RIVER    CLEAR     42  31  65 CALM      30.03S
LAND O LAKES   CLEAR     40  32  73 CALM      30.04S
RHINELANDER    CLEAR     43  30  60 CALM      30.04R
PHILLIPS       CLEAR     45  36  70 CALM      30.04R
ANTIGO         CLEAR     44  33  64 CALM      30.04R
TOMAHAWK       CLEAR     42  32  68 CALM      30.04S
MERRILL        NOT AVBL
$$

WIZ013-073-220400-
NORTHEAST WISCONSIN

CITY           SKY/WX    TMP DP  RH WIND       PRES   REMARKS
IRON MOUNTAIN  CLEAR     49  28  44 NE7       30.04R
MARINETTE      CLEAR     46  36  66 CALM      30.04R
OCONTO         CLEAR     43  38  84 CALM      30.04R
$$

WIZ017-030-035>037-045-220400-
CENTRAL WISCONSIN

CITY           SKY/WX    TMP DP  RH WIND       PRES   REMARKS
MEDFORD        CLEAR     47  33  59 CALM      30.04R
WAUSAU         CLEAR     53  30  41 CALM      30.02R
MOSINEE        CLEAR     55  27  33 NE3       30.04R
MARSHFIELD     CLEAR     57  29  34 NE5       30.03R
WISC RAPIDS    CLEAR     57  28  33 NE6       30.04R
STEVENS POINT  CLEAR     53  28  39 NE6       30.03R
WAUPACA        CLEAR     56  42  60 NE6       30.04R
SHAWANO        CLEAR     51  35  52 E3        30.06R
CLINTONVILLE   CLEAR     46  37  71 CALM      30.05R
$$

WIZ038-039-048-051-220400-
FOX VALLEY

CITY           SKY/WX    TMP DP  RH WIND       PRES   REMARKS
NWS GREEN BAY  CLEAR     50  33  52 E8        30.05R
APPLETON       PTCLDY    52  32  46 E8        30.04R
OSHKOSH        PTCLDY    53  36  52 E12       30.03R
FOND DU LAC    PTCLDY    52  37  56 E10       30.03R
$$

WIZ022-050-052-220400-
EAST CENTRAL WISCONSIN

CITY           SKY/WX    TMP DP  RH WIND       PRES   REMARKS
STURGEON BAY   CLEAR     46  27  46 E5        30.06R
MANITOWOC      CLOUDY    49  29  46 NE8       30.05R
SHEBOYGAN      PTCLDY    47  34  60 NE16      30.03R
$$

LMZ563-521-522-541>543-220400-
LAKESHORE

STATION/POSITION TIME  TEMP    WIND        PRES    VSBY  WAVE
                       AIR SEA DIR/SP/G                  HT/PER
                 (UTC) (F)     (DEG/KT/KT) (MB)    (MI)  (FT/S)
SHEBOYGAN LKSHOR 0300           10/ 12/ 13 1017.3R
KEWAUNEE LKSHORE 0200           40/  6/ 10 1015.9R
NORTHPORT PIER   0200   46     160/  1/  2 1016.6R
N MID LAKE BUOY  0250   43 36  340/  4/  6 1017.5R         1/ 4
SISTER BAY LKSHO 0247   47     120/  4/  7   N/A
CHAMBERS ISLAND  0200   52      70/  7/ 10 1016.6R
MENOMINEE LKSHOR 0200   51     100/  4/  6 1016.9R
$$


USA.gov is the U.S. government's official web portal to all federal, state and local government web resources and services.